Home   Weather   Friesoythe   Past weeks

Flag for Germany Past Weather in Friesoythe, Lower Saxony, Germany — Yesterday and Last 2 Weeks

57 °F

Drizzle. Fog.

Feels Like: 55 °F
Forecast: 49 / 56 °F
Wind: 8 mph from West

Location: Meppen-Mil

Current Time: Oct 28, 2016 at 2:32:06 PM

Latest Report: Oct 28, 2016 at 1:20 PM

Visibility: 3 mi

Pressure: 30.39 "Hg

Humidity: 88%

Dew Point: 54 °F

Location of FriesoytheLocation

Past Weather in Friesoythe — Graph


Friesoythe Temperature Yesterday

Maximum temperature yesterday: 55 °F (at 1:20 PM)
Minimum temperature yesterday: 50 °F (at 12:20 AM)
Average temperature yesterday: 52 °F

High & Low Weather Summary for the Past Weeks

High63 °F (Oct 16, 3:20 PM)100% (Oct 15, 9:20 PM)30.45 "Hg (Oct 15, 9:20 PM)
Low30 °F (Oct 26, 4:20 AM)58% (Oct 23, 4:20 PM)29.68 "Hg (Oct 15, 4:20 AM)
Average47 °F88%30.06 "Hg
* Reported Oct 13 1:20 PM — Oct 28 1:20 PM, Friesoythe, Weather by CustomWeather, © 2016

Note: Actual official high and low records may vary slightly from our data, if they occured in-between our weather recording intervals... More about our weather records


Friesoythe Weather History for the Previous 24 Hours

Scroll right to see more
Time TempWeatherWind HumidityBarometerVisibility
1:20 PM
Fri, Oct 28
57 °FDrizzle. Fog.8 mph88%30.39 "Hg3 mi
12:20 PM55 °FDrizzle. Fog.7 mph88%30.42 "Hg3 mi
11:48 AM55 °FDrizzle. Partly sunny.7 mph88%30.39 "Hg4 mi
11:20 AM55 °FLight rain. Broken clouds.7 mph88%30.39 "HgN/A
10:20 AM55 °FPartly sunny.9 mph88%30.39 "HgN/A
9:20 AM55 °FPassing clouds.9 mph82%30.36 "HgN/A
8:20 AM55 °FPartly cloudy.8 mph82%30.36 "HgN/A
7:20 AM54 °FPassing clouds.8 mph88%30.36 "HgN/A
6:20 AM54 °FPassing clouds.8 mph88%30.36 "HgN/A
5:20 AM54 °FCool.8 mph88%30.36 "Hg4 mi
4:20 AM54 °FCool.8 mph88%30.36 "Hg3 mi
3:20 AM54 °FCool.6 mph88%30.36 "Hg3 mi
2:20 AM54 °FCool.7 mph88%30.36 "Hg3 mi
1:20 AM52 °FCool.7 mph88%30.39 "Hg4 mi
12:20 AM52 °FCool.7 mph88%30.39 "Hg4 mi
11:20 PM
Thu, Oct 27
52 °FCool.6 mph88%30.42 "Hg4 mi
10:20 PM52 °FCool.7 mph94%30.42 "Hg4 mi
9:20 PM52 °FCool.7 mph88%30.42 "Hg4 mi
8:20 PM52 °FCool.7 mph88%30.42 "Hg4 mi
7:20 PM54 °FCool.6 mph82%30.42 "Hg4 mi
6:20 PM54 °FCool.6 mph82%30.42 "Hg4 mi
5:20 PM54 °FCool.8 mph82%30.42 "Hg5 mi
4:20 PM55 °FPartly sunny.7 mph82%30.45 "Hg5 mi
3:20 PM55 °FBroken clouds.7 mph82%30.45 "Hg5 mi
2:20 PM55 °FPartly sunny.7 mph82%30.45 "Hg4 mi
Weather by CustomWeather, © 2016

See weather overviewHow to use our weather pages